| time (UTC) | temp F | wind direction | speed MPH | gust MPH | rain 1hr in | rain 24hr in | rain mn in | humidity % | barometer mb |
| 20260502123025 | 41 | 323 | 2.0 | 8.0 | 0.00 | 0.11 | 0.11 | 94 | 1013.9 |
| 20260502121523 | 41 | 23 | 5.0 | 13.0 | 0.00 | 0.11 | 0.11 | 94 | 1013.5 |
| 20260502114519 | 42 | 284 | 2.0 | 6.0 | 0.00 | 0.11 | 0.11 | 95 | 1013.6 |
| 20260502113018 | 43 | 334 | 1.0 | 7.0 | 0.00 | 0.11 | 0.11 | 95 | 1013.3 |
| 20260502111515 | 43 | 309 | 1.0 | 4.0 | 0.00 | 0.11 | 0.11 | 95 | 1013.2 |
| 20260502110015 | 43 | 281 | 0.0 | 3.0 | 0.00 | 0.11 | 0.11 | 95 | 1013.4 |
| 20260502104521 | 42 | 289 | 0.0 | 2.0 | 0.00 | 0.11 | 0.11 | 95 | 1013.2 |
| 20260502103015 | 42 | 319 | 0.0 | 2.0 | 0.00 | 0.11 | 0.11 | 95 | 1012.7 |
| 20260502101530 | 42 | 280 | 0.0 | 1.0 | 0.00 | 0.11 | 0.11 | 94 | 1012.6 |
| 20260502091506 | 43 | 279 | 0.0 | 1.0 | 0.07 | 0.11 | 0.11 | 93 | 1012.1 |
| 20260502080109 | 44 | 9 | 0.0 | 3.0 | 0.04 | 0.04 | 0.04 | 92 | 1012.6 |
| 20260502070100 | 45 | 23 | 1.0 | 4.0 | 0.00 | 0.00 | 0.00 | 90 | 1012.7 |
| 20260502064552 | 45 | 280 | 1.0 | 6.0 | 0.00 | 0.00 | 0.00 | 90 | 1012.9 |
| 20260502063057 | 45 | 311 | 2.0 | 6.0 | 0.00 | 0.00 | 0.00 | 89 | 1013.3 |
| 20260502061545 | 46 | 320 | 2.0 | 5.0 | 0.00 | 0.00 | 0.00 | 88 | 1013.2 |
| 20260502060044 | 46 | 351 | 1.0 | 4.0 | 0.00 | 0.00 | 0.00 | 87 | 1013.3 |
| 20260502054543 | 46 | 8 | 1.0 | 4.0 | 0.00 | 0.00 | 0.00 | 86 | 1013.3 |
| 20260502053040 | 46 | 331 | 2.0 | 4.0 | 0.00 | 0.00 | 0.00 | 85 | 1013.3 |
| 20260502051551 | 47 | 345 | 0.0 | 1.0 | 0.00 | 0.00 | 0.00 | 83 | 1013.2 |
| 20260502050037 | 47 | 343 | 0.0 | 0.0 | 0.00 | 0.00 | 0.00 | 82 | 1013.2 |
| 20260502044534 | 47 | 343 | 0.0 | 0.0 | 0.00 | 0.00 | 0.00 | 80 | 1013.4 |
| 20260502043031 | 48 | 343 | 0.0 | 0.0 | 0.00 | 0.00 | 0.00 | 77 | 1013.1 |
| 20260502041528 | 49 | 343 | 0.0 | 0.0 | 0.00 | 0.00 | 0.00 | 74 | 1013.1 |
| 20260502040028 | 49 | 343 | 0.0 | 0.0 | 0.00 | 0.00 | 0.00 | 73 | 1012.9 |
| 20260502034528 | 49 | 343 | 0.0 | 1.0 | 0.00 | 0.00 | 0.00 | 72 | 1012.8 |
| 20260502033025 | 50 | 1 | 0.0 | 1.0 | 0.00 | 0.00 | 0.00 | 71 | 1012.8 |
| 20260502031524 | 50 | 328 | 0.0 | 2.0 | 0.00 | 0.00 | 0.00 | 72 | 1012.9 |
| 20260502030024 | 50 | 330 | 0.0 | 3.0 | 0.00 | 0.00 | 0.00 | 71 | 1012.9 |
| 20260502024523 | 50 | 327 | 0.0 | 3.0 | 0.00 | 0.00 | 0.00 | 71 | 1013.1 |
| 20260502023022 | 50 | 319 | 1.0 | 0.0 | 0.00 | 0.00 | 0.00 | 71 | 1013.3 |
| 20260502021522 | 50 | 339 | 0.0 | 3.0 | 0.00 | 0.00 | 0.00 | 71 | 1013.3 |
| 20260502020021 | 50 | 317 | 0.0 | 2.0 | 0.00 | 0.00 | 0.00 | 70 | 1013.3 |
| 20260502014521 | 50 | 319 | 1.0 | 2.0 | 0.00 | 0.00 | 0.00 | 70 | 1013.4 |
| 20260502013020 | 50 | 354 | 0.0 | 3.0 | 0.00 | 0.00 | 0.00 | 70 | 1013.4 |
| 20260502011524 | 50 | 46 | 0.0 | 2.0 | 0.00 | 0.00 | 0.00 | 70 | 1013.1 |
| 20260502010019 | 50 | 88 | 0.0 | 1.0 | 0.00 | 0.00 | 0.00 | 69 | 1013.1 |
| 20260502004518 | 51 | 91 | 0.0 | 1.0 | 0.00 | 0.00 | 0.00 | 66 | 1012.9 |
| 20260502003016 | 52 | 91 | 0.0 | 3.0 | 0.00 | 0.00 | 0.00 | 64 | 1012.7 |
| 20260502001520 | 52 | 31 | 1.0 | 3.0 | 0.00 | 0.00 | 0.00 | 62 | 1012.7 |
| 20260502000016 | 53 | 357 | 1.0 | 5.0 | 0.00 | 0.00 | 0.00 | 60 | 1012.6 |
| 20260501234515 | 54 | 288 | 1.0 | 7.0 | 0.00 | 0.00 | 0.00 | 58 | 1012.5 |
| 20260501233020 | 55 | 252 | 0.0 | 7.0 | 0.00 | 0.00 | 0.00 | 56 | 1012.5 |
| 20260501231514 | 55 | 173 | 2.0 | 5.0 | 0.00 | 0.00 | 0.00 | 53 | 1012.3 |
| 20260501230018 | 56 | 274 | 2.0 | 7.0 | 0.00 | 0.00 | 0.00 | 52 | 1012.1 |
| 20260501224514 | 56 | 262 | 1.0 | 5.0 | 0.00 | 0.00 | 0.00 | 51 | 1011.9 |
| 20260501223012 | 57 | 289 | 1.0 | 4.0 | 0.00 | 0.00 | 0.00 | 50 | 1011.8 |
| 20260501221512 | 57 | 259 | 2.0 | 5.0 | 0.00 | 0.00 | 0.00 | 49 | 1011.8 |
| 20260501220025 | 57 | 262 | 1.0 | 4.0 | 0.00 | 0.00 | 0.00 | 49 | 1011.9 |
| 20260501214510 | 57 | 280 | 1.0 | 6.0 | 0.00 | 0.00 | 0.00 | 48 | 1011.9 |
| 20260501213009 | 58 | 300 | 2.0 | 8.0 | 0.00 | 0.00 | 0.00 | 47 | 1011.8 |
| 20260501211509 | 59 | 262 | 2.0 | 4.0 | 0.00 | 0.00 | 0.00 | 49 | 1011.7 |
| 20260501210011 | 60 | 258 | 3.0 | 7.0 | 0.00 | 0.00 | 0.00 | 45 | 1011.6 |
| 20260501204506 | 61 | 319 | 0.0 | 6.0 | 0.00 | 0.00 | 0.00 | 46 | 1011.5 |
| 20260501203007 | 62 | 204 | 0.0 | 3.0 | 0.00 | 0.00 | 0.00 | 46 | 1011.6 |
| 20260501201501 | 61 | 285 | 3.0 | 8.0 | 0.00 | 0.00 | 0.00 | 47 | 1011.7 |
| 20260501200100 | 59 | 281 | 2.0 | 4.0 | 0.00 | 0.00 | 0.00 | 48 | 1011.9 |
| 20260501194559 | 59 | 155 | 1.0 | 9.0 | 0.00 | 0.00 | 0.00 | 48 | 1011.9 |
| 20260501193103 | 59 | 319 | 2.0 | 6.0 | 0.00 | 0.00 | 0.00 | 47 | 1012.0 |
| 20260501191604 | 60 | 302 | 1.0 | 7.0 | 0.00 | 0.00 | 0.00 | 44 | 1012.0 |
| 20260501190104 | 60 | 207 | 1.0 | 5.0 | 0.00 | 0.00 | 0.00 | 45 | 1012.2 |
| 20260501184654 | 60 | 230 | 2.0 | 5.0 | 0.00 | 0.00 | 0.00 | 47 | 1012.4 |
| 20260501183059 | 59 | 290 | 1.0 | 4.0 | 0.00 | 0.00 | 0.00 | 50 | 1012.4 |
| 20260501181602 | 57 | 288 | 2.0 | 7.0 | 0.00 | 0.00 | 0.00 | 48 | 1012.6 |
| 20260501180045 | 57 | 320 | 2.0 | 6.0 | 0.00 | 0.00 | 0.00 | 50 | 1012.9 |
| 20260501174543 | 57 | 247 | 3.0 | 10.0 | 0.00 | 0.00 | 0.00 | 51 | 1013.1 |
| 20260501173047 | 56 | 306 | 4.0 | 7.0 | 0.00 | 0.00 | 0.00 | 49 | 1013.2 |
| 20260501171538 | 55 | 292 | 2.0 | 6.0 | 0.00 | 0.00 | 0.00 | 51 | 1013.2 |
| 20260501170044 | 55 | 335 | 2.0 | 7.0 | 0.00 | 0.00 | 0.00 | 53 | 1013.4 |
| 20260501164542 | 54 | 244 | 2.0 | 10.0 | 0.00 | 0.00 | 0.00 | 54 | 1013.5 |
| 20260501163040 | 53 | 273 | 2.0 | 7.0 | 0.00 | 0.00 | 0.00 | 55 | 1013.8 |
| 20260501161530 | 53 | 271 | 1.0 | 6.0 | 0.00 | 0.00 | 0.00 | 57 | 1014.0 |
| 20260501160044 | 52 | 32 | 0.0 | 7.0 | 0.00 | 0.00 | 0.00 | 58 | 1014.2 |
| 20260501154525 | 51 | 292 | 1.0 | 5.0 | 0.00 | 0.00 | 0.00 | 61 | 1014.2 |
| 20260501153023 | 51 | 315 | 2.0 | 8.0 | 0.00 | 0.00 | 0.00 | 63 | 1014.3 |
| 20260501151520 | 50 | 316 | 3.0 | 7.0 | 0.00 | 0.00 | 0.00 | 61 | 1014.5 |
| 20260501150018 | 49 | 348 | 3.0 | 14.0 | 0.00 | 0.00 | 0.00 | 62 | 1014.5 |
| 20260501144522 | 49 | 311 | 3.0 | 8.0 | 0.00 | 0.00 | 0.00 | 63 | 1014.6 |
| 20260501143014 | 49 | 23 | 2.0 | 7.0 | 0.00 | 0.00 | 0.00 | 64 | 1014.6 |
| 20260501141512 | 48 | 302 | 2.0 | 6.0 | 0.00 | 0.00 | 0.00 | 67 | 1014.5 |